AEE242 LGAV-LGSM

Flight info

Callsign AEE242
Flight time 0h 26m
Altitude 21000
Route KEA L995 RIPLI P32 IKARO L609 URNIL
Aircraft A320/M-SDE3FGHIRWY/LB1

Departure

Time 2026-05-08 07:42
Airport Athens Eleftherios Venizelos International Airport (LGAV)

Arrival

Time 2026-05-08 08:09
Airport Samos Airport (LGSM)
Time Latitude Longitude Altitude Speed Heading
2026-05-08 07:08 37.93913 23.95121 301 ft 0 kts 308°
2026-05-08 07:30 37.93900 23.95141 302 ft 4 kts 310°
2026-05-08 07:30 37.93882 23.95166 300 ft 4 kts 317°
2026-05-08 07:30 37.93860 23.95186 300 ft 4 kts 339°
2026-05-08 07:31 37.93839 23.95189 302 ft 2 kts 36°
2026-05-08 07:31 37.93834 23.95184 302 ft 0 kts 36°
2026-05-08 07:34 37.93836 23.95186 302 ft 1 kts 36°
2026-05-08 07:34 37.93847 23.95205 293 ft 5 kts 59°
2026-05-08 07:34 37.93868 23.95264 300 ft 9 kts 68°
2026-05-08 07:35 37.93893 23.95351 301 ft 12 kts 63°
2026-05-08 07:35 37.93963 23.95435 299 ft 16 kts 37°
2026-05-08 07:35 37.94056 23.95524 300 ft 18 kts 37°
2026-05-08 07:35 37.94163 23.95627 303 ft 20 kts 37°
2026-05-08 07:36 37.94284 23.95741 300 ft 23 kts 36°
2026-05-08 07:36 37.94363 23.95873 301 ft 17 kts 107°
2026-05-08 07:36 37.94379 23.95975 300 ft 14 kts 37°
2026-05-08 07:36 37.94466 23.96057 299 ft 17 kts 37°
2026-05-08 07:37 37.94566 23.96151 301 ft 19 kts 37°
2026-05-08 07:37 37.94676 23.96257 299 ft 21 kts 37°
2026-05-08 07:37 37.94799 23.96373 302 ft 23 kts 37°
2026-05-08 07:37 37.94933 23.96500 302 ft 25 kts 36°
2026-05-08 07:38 37.95078 23.96636 303 ft 27 kts 37°
2026-05-08 07:38 37.95232 23.96781 303 ft 28 kts 36°
2026-05-08 07:38 37.95363 23.96904 303 ft 23 kts 38°
2026-05-08 07:38 37.95352 23.97016 307 ft 5 kts 171°
2026-05-08 07:39 37.95349 23.97016 308 ft 0 kts 171°
2026-05-08 07:40 37.95348 23.97016 308 ft 0 kts 171°
2026-05-08 07:40 37.95335 23.97019 307 ft 6 kts 171°
2026-05-08 07:41 37.95276 23.97031 310 ft 10 kts 171°
2026-05-08 07:41 37.95199 23.97030 311 ft 12 kts 206°
2026-05-08 07:41 37.95125 23.96959 310 ft 15 kts 217°
2026-05-08 07:41 37.94934 23.96778 307 ft 68 kts 217°
2026-05-08 07:42 37.94372 23.96244 291 ft 129 kts 217°
2026-05-08 07:42 37.93534 23.95441 409 ft 163 kts 218°
2026-05-08 07:42 37.92619 23.94580 1081 ft 166 kts 215°
2026-05-08 07:42 37.91637 23.93698 1710 ft 176 kts 210°
2026-05-08 07:43 37.90549 23.92968 2411 ft 183 kts 205°
2026-05-08 07:43 37.89325 23.92226 2775 ft 208 kts 205°
2026-05-08 07:43 37.87965 23.91390 3425 ft 223 kts 207°
2026-05-08 07:43 37.86482 23.90625 4076 ft 241 kts 191°
2026-05-08 07:44 37.84771 23.90821 4880 ft 258 kts 161°
2026-05-08 07:44 37.83333 23.92228 5762 ft 273 kts 129°
2026-05-08 07:44 37.82361 23.94338 6691 ft 281 kts 121°
2026-05-08 07:44 37.81448 23.96544 7569 ft 286 kts 121°
2026-05-08 07:45 37.80538 23.98797 8461 ft 290 kts 121°
2026-05-08 07:45 37.79620 24.01060 9318 ft 295 kts 121°
2026-05-08 07:45 37.78673 24.03382 10177 ft 300 kts 121°
2026-05-08 07:45 37.77678 24.05788 10605 ft 320 kts 122°
2026-05-08 07:46 37.76601 24.08365 10876 ft 343 kts 121°
2026-05-08 07:46 37.75473 24.11077 11437 ft 353 kts 120°
2026-05-08 07:46 37.74363 24.13882 12094 ft 362 kts 113°
2026-05-08 07:46 37.73807 24.17021 12711 ft 372 kts 97°
2026-05-08 07:47 37.73542 24.20302 13371 ft 378 kts 96°
2026-05-08 07:47 37.73278 24.23640 14022 ft 385 kts 96°
2026-05-08 07:47 37.73011 24.27025 14597 ft 391 kts 96°
2026-05-08 07:47 37.72739 24.30465 15185 ft 396 kts 96°
2026-05-08 07:48 37.72460 24.33947 15767 ft 401 kts 96°
2026-05-08 07:48 37.72175 24.37472 16344 ft 406 kts 95°
2026-05-08 07:48 37.71886 24.41038 16978 ft 409 kts 96°
2026-05-08 07:48 37.71592 24.44629 17621 ft 413 kts 96°
2026-05-08 07:49 37.71292 24.48256 18192 ft 418 kts 95°
2026-05-08 07:49 37.70988 24.51933 18722 ft 424 kts 95°
2026-05-08 07:49 37.70681 24.55651 19244 ft 428 kts 95°
2026-05-08 07:49 37.70370 24.59414 19774 ft 433 kts 95°
2026-05-08 07:50 37.70052 24.63213 20310 ft 438 kts 96°
2026-05-08 07:50 37.69730 24.67052 20813 ft 442 kts 96°
2026-05-08 07:50 37.69404 24.70930 21087 ft 445 kts 96°
2026-05-08 07:50 37.69074 24.74841 21159 ft 453 kts 96°
2026-05-08 07:51 37.68736 24.78822 21163 ft 457 kts 96°
2026-05-08 07:51 37.68396 24.82815 21163 ft 458 kts 96°
2026-05-08 07:51 37.68057 24.86812 21151 ft 458 kts 96°
2026-05-08 07:51 37.67717 24.90811 21163 ft 458 kts 96°
2026-05-08 07:52 37.67373 24.94813 21164 ft 458 kts 96°
2026-05-08 07:52 37.67026 24.98814 21165 ft 458 kts 96°
2026-05-08 07:52 37.66677 25.02810 21145 ft 458 kts 96°
2026-05-08 07:52 37.66325 25.06806 21165 ft 458 kts 96°
2026-05-08 07:53 37.65972 25.10798 21165 ft 458 kts 96°
2026-05-08 07:53 37.65618 25.14794 21166 ft 458 kts 96°
2026-05-08 07:53 37.65265 25.18793 21167 ft 459 kts 96°
2026-05-08 07:53 37.64915 25.22789 21168 ft 459 kts 96°
2026-05-08 07:54 37.64562 25.26791 21168 ft 459 kts 96°
2026-05-08 07:54 37.64205 25.30790 21167 ft 459 kts 96°
2026-05-08 07:54 37.63848 25.34785 21159 ft 459 kts 96°
2026-05-08 07:54 37.63493 25.38780 21166 ft 458 kts 96°
2026-05-08 07:55 37.63145 25.42725 21166 ft 458 kts 96°
2026-05-08 07:55 37.62787 25.46775 21166 ft 458 kts 96°
2026-05-08 07:55 37.62437 25.50715 21167 ft 458 kts 96°
2026-05-08 07:55 37.62081 25.54705 21167 ft 458 kts 96°
2026-05-08 07:56 37.61724 25.58700 21169 ft 458 kts 96°
2026-05-08 07:56 37.61363 25.62689 21169 ft 458 kts 96°
2026-05-08 07:56 37.61002 25.66668 21039 ft 453 kts 96°
2026-05-08 07:56 37.60647 25.70580 20610 ft 448 kts 96°
2026-05-08 07:57 37.60296 25.74480 20129 ft 446 kts 96°
2026-05-08 07:57 37.59947 25.78341 19668 ft 441 kts 97°
2026-05-08 07:57 37.59596 25.82166 19197 ft 437 kts 97°
2026-05-08 07:57 37.59247 25.85946 18737 ft 431 kts 97°
2026-05-08 07:58 37.58902 25.89678 18258 ft 426 kts 97°
2026-05-08 07:58 37.58560 25.93371 17732 ft 421 kts 97°
2026-05-08 07:58 37.58222 25.97013 17210 ft 416 kts 97°
2026-05-08 07:58 37.57884 26.00606 16701 ft 410 kts 97°
2026-05-08 07:59 37.57549 26.04145 16210 ft 404 kts 97°
2026-05-08 07:59 37.57221 26.07641 15712 ft 399 kts 97°
2026-05-08 07:59 37.56899 26.11091 15224 ft 394 kts 97°
2026-05-08 07:59 37.56581 26.14505 14754 ft 390 kts 97°
2026-05-08 08:00 37.56264 26.17883 14284 ft 386 kts 98°
2026-05-08 08:00 37.55946 26.21217 13802 ft 381 kts 98°
2026-05-08 08:00 37.55630 26.24505 13274 ft 375 kts 98°
2026-05-08 08:00 37.55317 26.27746 12757 ft 370 kts 98°
2026-05-08 08:01 37.55034 26.30945 12248 ft 365 kts 94°
2026-05-08 08:01 37.55030 26.34121 11749 ft 360 kts 88°
2026-05-08 08:01 37.55245 26.37249 11261 ft 356 kts 85°
2026-05-08 08:01 37.55408 26.39299 10943 ft 354 kts 85°
2026-05-08 08:02 37.55738 26.43391 10302 ft 349 kts 85°
2026-05-08 08:02 37.55903 26.45399 9983 ft 347 kts 85°
2026-05-08 08:02 37.56230 26.49377 9299 ft 343 kts 85°
2026-05-08 08:02 37.56474 26.52355 8782 ft 341 kts 85°
2026-05-08 08:03 37.56715 26.55314 8284 ft 338 kts 85°
2026-05-08 08:03 37.56948 26.58253 7789 ft 336 kts 85°
2026-05-08 08:03 37.57168 26.61170 7302 ft 334 kts 85°
2026-05-08 08:03 37.57315 26.63134 6976 ft 332 kts 85°
2026-05-08 08:04 37.57528 26.66026 6496 ft 331 kts 85°
2026-05-08 08:04 37.57739 26.68904 5990 ft 329 kts 85°
2026-05-08 08:04 37.57949 26.71733 5498 ft 328 kts 85°
2026-05-08 08:04 37.58164 26.74583 5002 ft 326 kts 85°
2026-05-08 08:05 37.58382 26.77424 4501 ft 325 kts 85°
2026-05-08 08:05 37.58596 26.80199 4027 ft 310 kts 85°
2026-05-08 08:05 37.58800 26.82816 3776 ft 290 kts 85°
2026-05-08 08:05 37.58994 26.85261 3530 ft 272 kts 85°
2026-05-08 08:06 37.59343 26.87522 3284 ft 256 kts 66°
2026-05-08 08:06 37.60394 26.89227 3032 ft 242 kts 36°
2026-05-08 08:06 37.61884 26.89995 2790 ft 227 kts
2026-05-08 08:06 37.63360 26.89635 2579 ft 208 kts 333°
2026-05-08 08:07 37.64380 26.88558 2288 ft 178 kts 307°
2026-05-08 08:07 37.65139 26.87420 2032 ft 162 kts 316°
2026-05-08 08:07 37.66032 26.86696 1805 ft 149 kts 337°
2026-05-08 08:07 37.67020 26.86365 1392 ft 147 kts 355°
2026-05-08 08:08 37.67960 26.86720 1026 ft 142 kts 41°
2026-05-08 08:08 37.68625 26.87605 740 ft 137 kts 51°
2026-05-08 08:08 37.69042 26.88659 403 ft 133 kts 88°
2026-05-08 08:08 37.68999 26.89809 108 ft 129 kts 95°
2026-05-08 08:09 37.68935 26.90875 29 ft 106 kts 92°
2026-05-08 08:09 37.68904 26.91436 29 ft 33 kts 95°
2026-05-08 08:09 37.68896 26.91652 29 ft 21 kts 71°
2026-05-08 08:09 37.68975 26.91666 29 ft 1 kts 309°
2026-05-08 08:10 37.68982 26.91650 29 ft 4 kts 298°
2026-05-08 08:10 37.68989 26.91607 29 ft 6 kts 278°
2026-05-08 08:10 37.68998 26.91539 29 ft 9 kts 279°
2026-05-08 08:10 37.69003 26.91452 29 ft 11 kts 259°
2026-05-08 08:11 37.69001 26.91377 29 ft 9 kts 306°
2026-05-08 08:11 37.69047 26.91378 29 ft 4 kts
2026-05-08 08:11 37.69061 26.91379 29 ft 0 kts